Location: Newark
(3.0500°N, 36.0167°E)
Time: 20:16:40
(UTC+00:00)

Transit 2A Rocket - Pass Details

Date: 28 August 2019
Orbit: 594 x 909 km, 66.7° (Epoch: 22 October)

Event Time Altitude Azimuth Distance (km) Brightness Sun altitude
Rises 01:00:44 0° 5° (N) 2,818 - -37.8°
Reaches altitude 10° 01:03:29 10° 23° (NNE) 1,915 - -37.1°
Maximum altitude 01:06:33 19° 70° (ENE) 1,426 - -36.3°
Exits shadow 01:08:20 15° 100° (E) 1,622 7.3 -35.9°
Drops below altitude 10° 01:09:39 10° 116° (ESE) 1,951 7.6 -35.6°
Sets 01:12:29 0° 133° (SE) 2,891 8.4 -34.9°
